Location: Palombina Nuova
(43.6167°N, 13.4000°E)
Time: 05:51:13
(UTC+00:00)

Cosmos 2084 - Pass Details

Date: 17 February 2020
Orbit: 568 x 615 km, 62.8° (Epoch: 30 March)

Event Time Altitude Azimuth Distance (km) Brightness Sun altitude
Rises 05:18:18 0° 214° (SW) 2,867 6.7 -8.7°
Reaches altitude 10° 05:20:33 10° 214° (SW) 1,968 5.9 -8.3°
Maximum altitude 05:25:01 85° 125° (SE) 622 3.6 -7.5°
Drops below altitude 10° 05:29:31 10° 39° (NE) 1,977 6.6 -6.7°
Sets 05:31:47 0° 38° (NE) 2,881 7.4 -6.3°
